Moose Lake, MN

5:06 PM CDT on September 28, 2016 (GMT -0500)
Moose Lake-Carlton County

Weather History for KMZH - January, 2012

Change the Weather History Date:

Saturday, January 14, 2012

  Actual Average Record
Temperature  
Mean Temperature 12 °F -  
Max Temperature 17 °F 19 °F 43 °F (1980)
Min Temperature 8 °F -2 °F -47 °F (1972)
Degree Days  
Heating Degree Days 52    
Moisture  
Dew Point 2 °F    
Average Humidity 63    
Maximum Humidity 73    
Minimum Humidity 53    
Precipitation  
Precipitation 0.00 in - - ()
Sea Level Pressure  
Sea Level Pressure 29.99 in    
Wind  
Wind Speed 2 mph (South)    
Max Wind Speed 9 mph    
Max Gust Speed -    
Visibility 9 miles    
Events Snow    
Averages and records for this station are not official NWS values.
T = Trace of Precipitation, MM = Missing Value Source: NWS Daily Summary

Daily Weather History Graph

Daily Weather History Graph

Search for Another Location

Airport or City:

Trip Planner

Search our weather history database for the weather conditions in past years. The results will help you decide how hot, cold, wet, or windy it might be!

Date:

Astronomy

Jan. 14, 2012 Rise Set
Actual Time 7:51 AM CST 4:49 PM CST
Civil Twilight 7:17 AM CST 5:23 PM CST
Nautical Twilight 6:40 AM CST 6:00 PM CST
Astronomical Twilight 6:03 AM CST 6:36 PM CST
Moon 11:37 PM CST (1/14) 10:12 AM CST (1/14)
Length of Visible Light 10h 05m
Length of Day
8h 57m
Waning Gibbous, 68% of the Moon is Illuminated
Jan 14
Waning Gibbous
Jan 16
Last Quarter
Jan 23
New
Jan 30
First Quarter
Feb 7
Full

Hourly Weather History & Observations

Time (CST) Temp. Windchill Dew Point Humidity Pressure Visibility Wind Dir Wind Speed Gust Speed Precip Events Conditions
12:10 AM 10.4 °F - 1.4 °F 67% 29.95 in 10.0 mi Calm Calm - N/A   Overcast
12:30 AM 10.4 °F - 1.4 °F 67% 29.95 in 10.0 mi Calm Calm - N/A Snow Light Snow
12:50 AM 10.4 °F - 1.4 °F 67% 29.95 in 10.0 mi Calm Calm - N/A   Overcast
1:10 AM 10.4 °F - -0.4 °F 62% 29.96 in 10.0 mi Calm Calm - N/A   Overcast
1:30 AM 10.4 °F - -0.4 °F 62% 29.96 in 10.0 mi Calm Calm - N/A   Overcast
1:50 AM 10.4 °F - 1.4 °F 67% 29.96 in 10.0 mi Calm Calm - N/A   Overcast
2:10 AM 10.4 °F - -0.4 °F 62% 29.96 in 10.0 mi Calm Calm - N/A   Overcast
2:30 AM 10.4 °F - -0.4 °F 62% 29.96 in 10.0 mi Calm Calm - N/A   Overcast
2:50 AM 10.4 °F - -0.4 °F 62% 29.95 in 10.0 mi Calm Calm - N/A   Overcast
3:10 AM 10.4 °F - -0.4 °F 62% 29.96 in 10.0 mi Calm Calm - N/A   Overcast
3:30 AM 10.4 °F 2.2 °F -0.4 °F 62% 29.96 in 10.0 mi SSE 4.6 mph - N/A   Overcast
3:50 AM 10.4 °F - -0.4 °F 62% 29.96 in 10.0 mi Calm Calm - N/A   Overcast
4:10 AM 10.4 °F - -0.4 °F 62% 29.96 in 10.0 mi Calm Calm - N/A   Overcast
4:30 AM 10.4 °F 2.2 °F -0.4 °F 62% 29.96 in 10.0 mi South 4.6 mph - N/A   Overcast
4:50 AM 10.4 °F 4.0 °F -0.4 °F 62% 29.96 in 10.0 mi South 3.5 mph - N/A   Overcast
5:10 AM 10.4 °F 4.0 °F -0.4 °F 62% 29.96 in 10.0 mi South 3.5 mph - N/A   Overcast
5:30 AM 10.4 °F 2.2 °F -0.4 °F 62% 29.97 in 10.0 mi South 4.6 mph - N/A   Overcast
5:50 AM 10.4 °F 0.8 °F -0.4 °F 62% 29.99 in 10.0 mi SSW 5.8 mph - N/A   Overcast
6:10 AM 10.4 °F 2.2 °F -0.4 °F 62% 29.99 in 10.0 mi SSW 4.6 mph - N/A   Overcast
6:30 AM 10.4 °F 2.2 °F -0.4 °F 62% 29.98 in 10.0 mi South 4.6 mph - N/A   Overcast
6:50 AM 8.6 °F 2.0 °F -0.4 °F 67% 29.98 in 10.0 mi South 3.5 mph - N/A   Mostly Cloudy
7:10 AM 8.6 °F 2.0 °F -0.4 °F 67% 29.97 in 10.0 mi South 3.5 mph - N/A   Scattered Clouds
7:30 AM 8.6 °F - -0.4 °F 67% 29.98 in 10.0 mi Calm Calm - N/A   Mostly Cloudy
7:50 AM 8.6 °F 2.0 °F -0.4 °F 67% 29.98 in 10.0 mi South 3.5 mph - N/A   Overcast
8:10 AM 8.6 °F - 1.4 °F 73% 29.99 in 10.0 mi Calm Calm - N/A   Overcast
8:30 AM 10.4 °F 2.2 °F -0.4 °F 62% 29.99 in 10.0 mi South 4.6 mph - N/A   Overcast
9:10 AM 10.4 °F 2.2 °F -0.4 °F 62% 30.00 in 10.0 mi SSE 4.6 mph - N/A   Overcast
9:30 AM 10.4 °F 0.8 °F -0.4 °F 62% 30.00 in 10.0 mi South 5.8 mph - N/A   Overcast
9:50 AM 12.2 °F 2.9 °F -0.4 °F 57% 30.00 in 10.0 mi South 5.8 mph - N/A   Overcast
10:10 AM 12.2 °F 1.7 °F -0.4 °F 57% 30.01 in 10.0 mi South 6.9 mph - N/A   Overcast
10:30 AM 12.2 °F 1.7 °F -0.4 °F 57% 30.01 in 10.0 mi South 6.9 mph - N/A   Overcast
10:50 AM 12.2 °F -0.2 °F -0.4 °F 57% 30.01 in 10.0 mi SSW 9.2 mph - N/A   Overcast
11:10 AM 12.2 °F 0.7 °F -0.4 °F 57% 30.00 in 10.0 mi South 8.1 mph - N/A   Overcast
11:30 AM 14.0 °F 6.5 °F 1.4 °F 57% 30.00 in 10.0 mi South 4.6 mph - N/A   Overcast
11:50 AM 14.0 °F 6.5 °F 1.4 °F 57% 30.00 in 10.0 mi South 4.6 mph - N/A   Overcast
12:10 PM 14.0 °F 8.2 °F 1.4 °F 57% 30.00 in 7.0 mi South 3.5 mph - N/A Snow Light Snow
12:30 PM 14.0 °F 2.9 °F 1.4 °F 57% 30.00 in 5.0 mi SSE 8.1 mph - N/A Snow Light Snow
12:50 PM 15.8 °F 8.6 °F 1.4 °F 53% 29.99 in 5.0 mi South 4.6 mph - N/A Snow Light Snow
1:10 PM 15.8 °F 7.2 °F 1.4 °F 53% 29.99 in 5.0 mi South 5.8 mph - N/A Snow Light Snow
1:30 PM 15.8 °F - 1.4 °F 53% 29.99 in 7.0 mi Calm Calm - N/A Snow Light Snow
1:50 PM 15.8 °F 8.6 °F 3.2 °F 58% 29.99 in 5.0 mi SSE 4.6 mph - N/A Snow Light Snow
2:10 PM 17.6 °F 10.7 °F 3.2 °F 53% 29.98 in 5.0 mi South 4.6 mph - N/A Snow Light Snow
2:30 PM 17.6 °F 10.7 °F 3.2 °F 53% 29.98 in 10.0 mi South 4.6 mph - N/A Snow Light Snow
2:50 PM 17.6 °F 10.7 °F 3.2 °F 53% 29.99 in 4.0 mi South 4.6 mph - N/A Snow Light Snow
3:10 PM 17.6 °F 9.3 °F 3.2 °F 53% 30.00 in 5.0 mi South 5.8 mph - N/A Snow Light Snow
3:30 PM 17.6 °F 10.7 °F 5.0 °F 58% 30.00 in 5.0 mi South 4.6 mph - N/A Snow Light Snow
3:49 PM 17.6 °F 10.7 °F 3.2 °F 53% 30.00 in 7.0 mi South 4.6 mph - N/A Snow Light Snow
4:10 PM 17.6 °F - 5.0 °F 58% 30.00 in 10.0 mi Calm Calm - N/A   Overcast
4:30 PM 15.8 °F 8.6 °F 5.0 °F 62% 30.01 in 10.0 mi South 4.6 mph - N/A Snow Light Snow
4:50 PM 15.8 °F 10.2 °F 5.0 °F 62% 30.01 in 10.0 mi South 3.5 mph - N/A   Overcast
5:10 PM 15.8 °F 10.2 °F 5.0 °F 62% 30.01 in 10.0 mi South 3.5 mph - N/A   Overcast
5:30 PM 14.0 °F - 5.0 °F 67% 30.01 in 10.0 mi Calm Calm - N/A   Mostly Cloudy
5:50 PM 14.0 °F 8.2 °F 5.0 °F 67% 30.01 in 10.0 mi SSE 3.5 mph - N/A   Mostly Cloudy
6:10 PM 12.2 °F - 5.0 °F 73% 30.02 in 10.0 mi Calm Calm - N/A   Mostly Cloudy
6:30 PM 12.2 °F - 5.0 °F 73% 30.02 in 10.0 mi Calm Calm - N/A   Overcast
6:50 PM 14.0 °F - 6.8 °F 73% 30.03 in 10.0 mi Calm Calm - N/A   Overcast
7:10 PM 14.0 °F - 6.8 °F 73% 30.03 in 10.0 mi Calm Calm - N/A   Overcast
7:30 PM 14.0 °F - 6.8 °F 73% 30.03 in 10.0 mi Calm Calm - N/A   Overcast
7:50 PM 15.8 °F - 8.6 °F 73% 30.03 in 10.0 mi Calm Calm - N/A   Overcast
8:10 PM 15.8 °F - 8.6 °F 73% 30.03 in 10.0 mi Calm Calm - N/A   Overcast
8:30 PM 15.8 °F - 8.6 °F 73% 30.03 in 10.0 mi Calm Calm - N/A   Overcast
8:50 PM 15.8 °F - 8.6 °F 73% 30.04 in 10.0 mi Calm Calm - N/A   Overcast
9:10 PM 15.8 °F - 8.6 °F 73% 30.04 in 10.0 mi Calm Calm - N/A   Overcast
9:30 PM 17.6 °F 12.3 °F 8.6 °F 68% 30.04 in 10.0 mi SSW 3.5 mph - N/A   Overcast
9:50 PM 17.6 °F 10.7 °F 8.6 °F 68% 30.04 in 10.0 mi South 4.6 mph - N/A   Overcast
10:10 PM 17.6 °F 12.3 °F 8.6 °F 68% 30.03 in 10.0 mi South 3.5 mph - N/A   Overcast
10:30 PM 17.6 °F - 8.6 °F 68% 30.04 in 10.0 mi Calm Calm - N/A   Overcast
10:50 PM 17.6 °F 12.3 °F 8.6 °F 68% 30.04 in 10.0 mi South 3.5 mph - N/A   Overcast
11:10 PM 17.6 °F - 8.6 °F 68% 30.05 in 10.0 mi Calm Calm - N/A   Overcast
11:30 PM 17.6 °F 12.3 °F 10.4 °F 73% 30.04 in 10.0 mi South 3.5 mph - N/A   Overcast
11:50 PM 17.6 °F 12.3 °F 10.4 °F 73% 30.04 in 10.0 mi South 3.5 mph - N/A   Overcast